User: anonymous   Login
Location: Radomski Observatory
(40.2854°N, 79.5145°W)
Time: 00:31:24
(UTC-04:00)
Language:

Uosat F - Orbit

View from above orbital plane
View from above orbital plane
View from above satellite
View from above satellite

Ground track
Ground track

The orbit data is extracted from the following two-line orbital elements,

1 21575U 91050B   15244.95632397 +.00000059 +00000-0 +33012-4 0  9992
2 21575 098.7454 234.7683 0008491 087.5206 325.5001 14.40660593266875
Epoch (UTC): 01 September 2015 22:57:06
Eccentricity: 0.0008491
inclination: 98.7454°
perigee height: 750 km
apogee height: 762 km
right ascension of ascending node: 234.7683°
argument of perigee: 87.5206°
revolutions per day: 14.40660593
mean anomaly at epoch: 325.5001°
orbit number at epoch: 26687

The dashed part of the orbit path shows where the satellite is in the earth's shadow,  

DLR